FENGYUN 1C DEB

Satellite information

Favourite Embed

Satellite Type and Status

DEBRISIN ORBIT

Key statistics

Satellite FENGYUN 1C DEB at a glance.

Uptime

9658

Days in orbit

Revolutions

≈ 14.6

Per day

Orbit

SSO

Sun Synchronous Orbit

Inclination

99.1

Latest

Satellite identification and parameters

Extended collection of information and parameters for FENGYUN 1C DEB.

Object identification

Identified? True

Debris? True

Object name: FENGYUN 1C DEB

International designator: 1999-025DSL

Object number (NORAD): 36163

Object ID (CCSDS): 36163

Country: PEOPLES REPUBLIC OF CHINA (PRC)

Current information (Y/N): Y

RCS size: SMALL

Orbital parameters

Period: 98.862 minutes

Inclination: 99.0812 deg

SMA: 7082.397 km

Apoapsis: 732.682 km

Periapsis: 675.841 km

RAAN: 129.5205 deg

Eccentricy: 0.00401285

Argument of periapsis: 248.0117 deg

Mean anomaly: 111.6812 deg

Mean motion: 14.56573404 rev/day

Mean motion (dot): 0.00021961 rev/day2

B* drag term: 0.0048735357 1/REarth

Two-line elements (TLE)

Creation date: Oct. 18, 2025, 2:17 a.m.

Reference frame: TEME

Reference center: EARTH

Epoch: Oct. 17, 2025, 12:48 p.m. UTC

TLE line 0: 0 FENGYUN 1C DEB

TLE line 1: 1 36163U 99025DSL 25290.53354489 .00021961 00000-0 48735-2 0 9991

TLE line 2: 2 36163 99.0812 129.5205 0040129 248.0117 111.6812 14.56573404883685

Live tracking on map

Real-time ground track for satellite FENGYUN 1C DEB.

In-orbit conjunctions

A list of the most updated potential collisions computed for object FENGYUN 1C DEB.

Target Orbit TCA Probability of collision Miss distance Type
DMSP 5D-2 F13 DEB SSO 2025-08-04 07:50:56 0.0001327671 44.0 (m) DEBRIS
FUSE 1 LEO 2025-07-27 06:50:09 0.0001183244 191.0 (m) PAYLOAD
CZ-6A DEB LEO 2024-10-02 07:22:15 0.0003049649 734.0 (m) DEBRIS

Associated space launch

Chinese polar orbiting meteorological satellite

FENGYUN 1C DEB was lifted into orbit during the mission ‘Long March 4B | Feng Yun 1C’, on board a Long March 4B space rocket.

The launch took place on May 10, 1999, 1:33 a.m. from Launch Complex 7.

For more information about the launch, click the button.

Launch to space Long March 4B | Feng Yun 1C
Long March 4B | Feng Yun 1C

Agency: N/A

Status: Launch Successful

Launch date: May 10, 1999, 1:33 a.m. UTC

Rocket: Long March 4B

Launch pad: Launch Complex 7

Location: Taiyuan Satellite Launch Center, People's Republic of China

...

Latest news about this satellite

There are no fresh news available about this satellite. Check back as we update our databases every day.


Newsletter sign-up

Weekly statistics, charts and insights to help you stay on top of the space industry.